Tracking 28790 objects as of 19-Apr-2024
HD Live streaming from Space Station
objects crossing your sky now

SL-16 DEB

Track SL-16 DEB now!
10-day predictions


NORAD ID: 22416
Int'l Code: 1992-093DH
Perigee: 824.9 km
Apogee: 937.1 km
Inclination: 71.0 °
Period: 102.4 minutes
Semi major axis: 7251 km
RCS: 0.0139 m2 (small)
Launch date: December 25, 1992
Source: Commonwealth of Independent States (former USSR) (CIS)
Launch site: TYURATAM MISSILE AND SPACE COMPLEX (TTMTR)

Note: This is SATELLITE DEBRIS
Your satellite tracking list
Your tracking list is empty




NASA's NSSDC Master Catalog

Two Line Element Set (TLE):
1 22416U 92093DH  24109.07193310  .00000618  00000-0  39578-3 0  9998
2 22416  70.9611 342.8873 0077318  90.7157  58.2095 14.05780672604561
Source of the keplerian elements: AFSPC